Find Starlink 5737

NORAD ID: 55570 Int'l Des: 2023-020 Owner: SPXS Country: US Constellation: starlink operational
LEOCIRCULAR

現在のビュー

3D地球を読み込み中...

About Starlink 5737

Starlink 5737 (NORAD 55570) is a starlink constellation satellite (v1.5) launched Feb 12, 2023 by SPXS of US. It operates in LEO, CIRCULAR orbit with a mass of 305.00 kg.

Starlink 5737について

説明を読み込み中...

次回通過

Passes for default location (London). Set your location on the main map for personalized predictions.

高度履歴

Loading altitude history...

軌道要素

1 55570U 23020B 26170.96564472 .00000078 00000-0 12352-4 0 9990
2 55570 43.0008 147.6860 0000272 270.3988 89.6832 15.27572182184558
Epoch: Jun 19, 2026 • Age: 11 hours

現在のステータス

高度 484.5 km
速度 7.63 km/s
衛星直下点 34.18°N, 126.8°E
打ち上げ日 Feb 12, 2023
運用期間 3.3 years
タイプ internet

技術仕様

分類 Payload
質量 305.00 kg
乾燥質量 290.00 kg
総質量 305.00 kg
長さ 0.20 m
直径 2.80 m
スパン 9.00 m
形状 Box + pan
製造者 SPXS
バスタイプ Starlink
フェーズステータス In Orbit
所有者/国 SPXS/US

Most Searched